User: anonymous   Login
Location: Bouchavesnes-Bergen
(49.9859°N, 2.9203°E)
Time: 05:02:38
(UTC+00:00)
Language:

Cosmos 1484 Rocket - Orbit

View from above orbital plane
View from above orbital plane
View from above satellite
View from above satellite

Ground track
Ground track

The orbit data is extracted from the following two-line orbital elements,

1 14208U 83075B   21125.43356798  .00000393  00000-0  26752-4 0  9995
2 14208  97.4349 105.3234 0036763 277.9194  81.7864 15.11421574 61366
Epoch (UTC): 05 May 2021 10:24:20
Eccentricity: 0.0036763
inclination: 97.4349°
perigee height: 506 km
apogee height: 557 km
right ascension of ascending node: 105.3234°
argument of perigee: 277.9194°
revolutions per day: 15.11421574
mean anomaly at epoch: 81.7864°
orbit number at epoch: 6136

The dashed part of the orbit path shows where the satellite is in the earth's shadow,  

DLR